Time,TemperatureF,DewpointF,PressureIn,WindDirection,WindDirectionDegrees,WindSpeedMPH,WindSpeedGustMPH,Humidity,HourlyPrecipIn,Conditions,Clouds,dailyrainin,SoftwareType,DateUTC
2013-05-09 00:02:00,60.7,57.8,30.00,North,0,0.0,0.0,90,0.00,,---,0.00,VWS V14.01,2013-05-09 05:02:00,
2013-05-09 00:07:00,60.7,58.1,30.00,North,0,0.0,0.0,91,0.00,,---,0.00,VWS V14.01,2013-05-09 05:07:00,
2013-05-09 00:12:00,60.5,57.9,30.00,North,0,0.0,0.0,91,0.00,,---,0.00,VWS V14.01,2013-05-09 05:12:00,
2013-05-09 00:17:00,60.5,57.9,30.00,WNW,292,0.0,0.0,91,0.00,,---,0.00,VWS V14.01,2013-05-09 05:17:00,
2013-05-09 00:22:00,60.4,57.7,30.00,WNW,292,0.0,0.0,91,0.00,,---,0.00,VWS V14.01,2013-05-09 05:22:00,
2013-05-09 00:27:00,60.4,57.7,30.00,WNW,292,0.0,0.0,91,0.00,,---,0.00,VWS V14.01,2013-05-09 05:27:00,
2013-05-09 00:32:00,60.2,57.5,30.00,WNW,292,0.0,0.0,91,0.00,,---,0.00,VWS V14.01,2013-05-09 05:32:00,
2013-05-09 00:37:00,60.2,57.5,30.00,WNW,292,0.0,0.0,91,0.00,,---,0.00,VWS V14.01,2013-05-09 05:37:00,
2013-05-09 00:42:00,60.2,57.5,30.00,SSE,158,0.0,0.0,91,0.00,,---,0.00,VWS V14.01,2013-05-09 05:42:00,
2013-05-09 00:47:00,60.2,57.5,30.00,SSE,158,0.0,0.0,91,0.00,,---,0.00,VWS V14.01,2013-05-09 05:47:00,
2013-05-09 00:52:00,60.0,57.4,30.00,SSW,202,0.0,0.0,91,0.00,,---,0.00,VWS V14.01,2013-05-09 05:52:00,
2013-05-09 00:57:00,60.0,57.4,30.00,SSW,202,0.0,0.0,91,0.00,,---,0.00,VWS V14.01,2013-05-09 05:57:00,
2013-05-09 01:02:00,60.0,57.7,30.00,SSW,202,0.0,0.0,92,0.00,,---,0.00,VWS V14.01,2013-05-09 06:02:00,
2013-05-09 01:07:00,60.0,57.7,30.00,SSW,202,0.0,0.0,92,0.00,,---,0.00,VWS V14.01,2013-05-09 06:07:00,
2013-05-09 01:12:00,59.8,57.5,30.00,SSW,202,0.0,0.0,92,0.00,,---,0.00,VWS V14.01,2013-05-09 06:12:00,
2013-05-09 01:17:00,59.8,57.5,30.00,SSW,202,0.0,0.0,92,0.00,,---,0.00,VWS V14.01,2013-05-09 06:17:00,
2013-05-09 01:22:00,59.8,57.8,30.00,SSW,202,0.0,0.0,93,0.00,,---,0.00,VWS V14.01,2013-05-09 06:22:00,
2013-05-09 01:27:00,59.8,57.8,30.00,SSW,202,0.0,0.0,93,0.00,,---,0.00,VWS V14.01,2013-05-09 06:27:00,
2013-05-09 01:32:00,59.8,57.5,30.00,SSW,202,0.0,0.0,92,0.00,,---,0.00,VWS V14.01,2013-05-09 06:32:00,
2013-05-09 01:37:00,59.8,57.8,30.00,SSW,202,0.0,0.0,93,0.00,,---,0.00,VWS V14.01,2013-05-09 06:37:00,
2013-05-09 01:42:00,60.0,58.0,30.00,SSW,202,0.0,0.0,93,0.00,,---,0.00,VWS V14.01,2013-05-09 06:42:00,
2013-05-09 01:47:00,60.0,58.0,30.00,SSW,202,0.0,0.0,93,0.00,,---,0.00,VWS V14.01,2013-05-09 06:47:00,
2013-05-09 01:52:00,60.0,58.0,30.00,SSW,202,0.0,0.0,93,0.00,,---,0.00,VWS V14.01,2013-05-09 06:52:00,
2013-05-09 01:57:00,59.8,57.8,30.00,SSW,202,0.0,0.0,93,0.00,,---,0.00,VWS V14.01,2013-05-09 06:57:00,
2013-05-09 02:02:00,59.8,57.8,30.00,SSW,202,0.0,0.0,93,0.00,,---,0.00,VWS V14.01,2013-05-09 07:02:00,
2013-05-09 02:07:00,59.8,57.8,30.00,WSW,248,0.0,0.0,93,0.00,,---,0.00,VWS V14.01,2013-05-09 07:07:00,
2013-05-09 02:12:00,59.8,57.8,30.00,WSW,248,0.0,0.0,93,0.00,,---,0.00,VWS V14.01,2013-05-09 07:12:00,
2013-05-09 02:17:00,59.8,57.8,30.00,WSW,248,0.0,0.0,93,0.00,,---,0.00,VWS V14.01,2013-05-09 07:17:00,
2013-05-09 02:22:00,59.8,57.8,30.00,WSW,248,0.0,0.0,93,0.00,,---,0.00,VWS V14.01,2013-05-09 07:22:00,
2013-05-09 02:27:00,59.8,57.8,30.00,WSW,248,0.0,0.0,93,0.00,,---,0.00,VWS V14.01,2013-05-09 07:27:00,
2013-05-09 02:32:00,59.6,57.6,30.00,WSW,248,0.0,0.0,93,0.00,,---,0.00,VWS V14.01,2013-05-09 07:32:00,
2013-05-09 02:37:00,59.6,57.9,30.00,WSW,248,0.0,0.0,94,0.00,,---,0.00,VWS V14.01,2013-05-09 07:37:00,
2013-05-09 02:42:00,59.6,57.6,30.00,WSW,248,0.0,0.0,93,0.00,,---,0.00,VWS V14.01,2013-05-09 07:42:00,
2013-05-09 02:47:00,59.6,57.6,30.00,WSW,248,0.0,0.0,93,0.00,,---,0.00,VWS V14.01,2013-05-09 07:47:00,
2013-05-09 02:52:00,59.5,57.4,30.00,WSW,248,0.0,0.0,93,0.00,,---,0.00,VWS V14.01,2013-05-09 07:52:00,
2013-05-09 02:57:00,59.5,57.7,30.00,WSW,248,0.0,0.0,94,0.00,,---,0.00,VWS V14.01,2013-05-09 07:57:00,
2013-05-09 03:02:00,59.6,57.9,30.00,WSW,248,0.0,0.0,94,0.00,,---,0.00,VWS V14.01,2013-05-09 08:02:00,
2013-05-09 03:07:00,59.6,57.9,30.00,WSW,248,0.0,0.0,94,0.00,,---,0.00,VWS V14.01,2013-05-09 08:07:00,
2013-05-09 03:12:00,59.6,57.9,30.00,WSW,248,0.0,0.0,94,0.00,,---,0.00,VWS V14.01,2013-05-09 08:12:00,
2013-05-09 03:17:00,59.5,57.7,30.00,WSW,248,0.0,0.0,94,0.00,,---,0.00,VWS V14.01,2013-05-09 08:17:00,
2013-05-09 03:22:00,59.5,57.7,30.00,WSW,248,0.0,0.0,94,0.00,,---,0.00,VWS V14.01,2013-05-09 08:22:00,
2013-05-09 03:27:00,59.5,57.7,30.00,West,270,0.0,0.0,94,0.00,,---,0.00,VWS V14.01,2013-05-09 08:27:00,
2013-05-09 03:32:00,59.3,57.6,30.00,West,270,0.0,0.0,94,0.00,,---,0.00,VWS V14.01,2013-05-09 08:32:00,
2013-05-09 03:37:00,59.3,57.6,30.00,West,270,0.0,0.0,94,0.00,,---,0.00,VWS V14.01,2013-05-09 08:37:00,
2013-05-09 03:42:00,59.1,57.4,30.00,West,270,0.0,0.0,94,0.00,,---,0.00,VWS V14.01,2013-05-09 08:42:00,
2013-05-09 03:48:00,59.1,57.4,30.00,West,270,0.0,0.0,94,0.00,,---,0.00,VWS V14.01,2013-05-09 08:48:00,
2013-05-09 03:53:00,59.1,57.4,30.00,West,270,0.0,0.0,94,0.00,,---,0.00,VWS V14.01,2013-05-09 08:53:00,
2013-05-09 03:58:00,59.1,57.4,30.00,West,270,0.0,0.0,94,0.00,,---,0.00,VWS V14.01,2013-05-09 08:58:00,
2013-05-09 04:03:00,59.1,57.4,30.00,West,270,0.0,0.0,94,0.00,,---,0.00,VWS V14.01,2013-05-09 09:03:00,
2013-05-09 04:08:00,58.9,57.2,30.00,West,270,0.0,0.0,94,0.00,,---,0.00,VWS V14.01,2013-05-09 09:08:00,
2013-05-09 04:13:00,58.9,57.2,30.00,West,270,0.0,0.0,94,0.00,,---,0.00,VWS V14.01,2013-05-09 09:13:00,
2013-05-09 04:18:00,58.7,57.0,30.00,WSW,248,0.0,0.0,94,0.00,,---,0.00,VWS V14.01,2013-05-09 09:18:00,
2013-05-09 04:23:00,58.7,57.0,30.00,WSW,248,0.0,0.0,94,0.00,,---,0.00,VWS V14.01,2013-05-09 09:23:00,
2013-05-09 04:28:00,58.6,56.8,30.00,WSW,248,0.0,0.0,94,0.00,,---,0.00,VWS V14.01,2013-05-09 09:28:00,
2013-05-09 04:33:00,58.4,56.7,30.00,WSW,248,0.0,0.0,94,0.00,,---,0.00,VWS V14.01,2013-05-09 09:33:00,
2013-05-09 04:38:00,58.4,56.7,30.00,WSW,248,0.0,0.0,94,0.00,,---,0.00,VWS V14.01,2013-05-09 09:38:00,
2013-05-09 04:43:00,58.4,56.7,30.00,WSW,248,0.0,0.0,94,0.00,,---,0.00,VWS V14.01,2013-05-09 09:43:00,
2013-05-09 04:48:00,58.2,56.2,30.00,WSW,248,0.0,0.0,93,0.00,,---,0.00,VWS V14.01,2013-05-09 09:48:00,
2013-05-09 04:53:00,58.0,56.3,30.00,WSW,248,0.0,0.0,94,0.00,,---,0.00,VWS V14.01,2013-05-09 09:53:00,
2013-05-09 04:58:00,58.0,56.3,30.03,WSW,248,0.0,0.0,94,0.00,,---,0.00,VWS V14.01,2013-05-09 09:58:00,
2013-05-09 05:03:00,57.8,56.1,30.03,WSW,248,0.0,0.0,94,0.00,,---,0.00,VWS V14.01,2013-05-09 10:03:00,
2013-05-09 05:08:00,57.8,56.1,30.03,WSW,248,0.0,0.0,94,0.00,,---,0.00,VWS V14.01,2013-05-09 10:08:00,
2013-05-09 05:13:00,57.7,56.0,30.00,SSW,202,0.0,0.0,94,0.00,,---,0.00,VWS V14.01,2013-05-09 10:13:00,
2013-05-09 05:18:00,57.7,56.0,30.00,SSW,202,0.0,0.0,94,0.00,,---,0.00,VWS V14.01,2013-05-09 10:18:00,
2013-05-09 05:23:00,57.7,56.0,30.00,SSW,202,0.0,0.0,94,0.00,,---,0.00,VWS V14.01,2013-05-09 10:23:00,
2013-05-09 05:28:00,57.7,56.0,30.00,SSW,202,0.0,0.0,94,0.00,,---,0.00,VWS V14.01,2013-05-09 10:28:00,
2013-05-09 05:33:00,57.5,55.8,30.00,SSW,202,0.0,0.0,94,0.00,,---,0.00,VWS V14.01,2013-05-09 10:33:00,
2013-05-09 05:38:00,57.3,55.6,30.00,WSW,248,0.0,0.0,94,0.00,,---,0.00,VWS V14.01,2013-05-09 10:38:00,
2013-05-09 05:43:00,57.3,55.6,30.03,WSW,248,0.0,0.0,94,0.00,,---,0.00,VWS V14.01,2013-05-09 10:43:00,
2013-05-09 05:48:00,57.1,55.4,30.03,WSW,248,0.0,0.0,94,0.00,,---,0.00,VWS V14.01,2013-05-09 10:48:00,
2013-05-09 05:53:00,57.1,55.4,30.03,WSW,248,0.0,0.0,94,0.00,,---,0.00,VWS V14.01,2013-05-09 10:53:00,
2013-05-09 05:58:00,56.9,55.2,30.03,WSW,248,0.0,0.0,94,0.00,,---,0.00,VWS V14.01,2013-05-09 10:58:00,
2013-05-09 06:03:00,56.9,54.9,30.03,WSW,248,0.0,0.0,93,0.00,,---,0.00,VWS V14.01,2013-05-09 11:03:00,
2013-05-09 06:08:00,56.9,55.2,30.03,WSW,248,0.0,0.0,94,0.00,,---,0.00,VWS V14.01,2013-05-09 11:08:00,
2013-05-09 06:13:00,56.8,55.1,30.03,WSW,248,0.0,0.0,94,0.00,,---,0.00,VWS V14.01,2013-05-09 11:13:00,
2013-05-09 06:18:00,56.8,55.1,30.03,WSW,248,0.0,0.0,94,0.00,,---,0.00,VWS V14.01,2013-05-09 11:18:00,
2013-05-09 06:23:00,56.8,55.1,30.03,WSW,248,0.0,0.0,94,0.00,,---,0.00,VWS V14.01,2013-05-09 11:23:00,
2013-05-09 06:28:00,56.8,55.1,30.03,SW,225,0.0,0.0,94,0.00,,---,0.00,VWS V14.01,2013-05-09 11:28:00,
2013-05-09 06:33:00,56.6,54.9,30.03,SW,225,0.0,0.0,94,0.00,,---,0.00,VWS V14.01,2013-05-09 11:33:00,
2013-05-09 06:38:00,56.6,54.9,30.03,SW,225,0.0,0.0,94,0.00,,---,0.00,VWS V14.01,2013-05-09 11:38:00,
2013-05-09 06:43:00,56.6,54.9,30.06,SW,225,0.0,0.0,94,0.00,,---,0.00,VWS V14.01,2013-05-09 11:43:00,
2013-05-09 06:48:00,56.6,54.9,30.06,SW,225,0.0,0.0,94,0.00,,---,0.00,VWS V14.01,2013-05-09 11:48:00,
2013-05-09 06:53:00,56.6,54.9,30.06,SW,225,0.0,0.0,94,0.00,,---,0.00,VWS V14.01,2013-05-09 11:53:00,
2013-05-09 06:58:00,56.8,55.1,30.06,SW,225,0.0,0.0,94,0.00,,---,0.00,VWS V14.01,2013-05-09 11:58:00,
2013-05-09 07:03:00,56.8,55.1,30.06,SW,225,0.0,0.0,94,0.00,,---,0.00,VWS V14.01,2013-05-09 12:03:00,
2013-05-09 07:08:00,56.9,55.2,30.06,SW,225,0.0,0.0,94,0.00,,---,0.00,VWS V14.01,2013-05-09 12:08:00,
2013-05-09 07:13:00,56.9,55.2,30.06,SW,225,0.0,0.0,94,0.00,,---,0.00,VWS V14.01,2013-05-09 12:13:00,
2013-05-09 07:18:00,57.1,55.4,30.06,SW,225,0.0,0.0,94,0.00,,---,0.00,VWS V14.01,2013-05-09 12:18:00,
2013-05-09 07:23:00,57.3,55.6,30.06,SW,225,0.0,0.0,94,0.00,,---,0.00,VWS V14.01,2013-05-09 12:23:00,
2013-05-09 07:28:00,57.7,56.2,30.06,SW,225,0.0,0.0,95,0.00,,---,0.00,VWS V14.01,2013-05-09 12:28:00,
2013-05-09 07:33:00,57.8,56.4,30.06,SW,225,0.0,0.0,95,0.00,,---,0.00,VWS V14.01,2013-05-09 12:33:00,
2013-05-09 07:39:00,58.4,57.0,30.06,SW,225,0.0,0.0,95,0.00,,---,0.00,VWS V14.01,2013-05-09 12:39:00,
2013-05-09 07:44:00,58.7,57.3,30.03,SW,225,0.0,0.0,95,0.00,,---,0.00,VWS V14.01,2013-05-09 12:44:00,
2013-05-09 07:49:00,59.1,57.7,30.03,SW,225,0.0,0.0,95,0.00,,---,0.00,VWS V14.01,2013-05-09 12:49:00,
2013-05-09 07:54:00,59.5,58.0,30.03,SW,225,0.0,0.0,95,0.00,,---,0.00,VWS V14.01,2013-05-09 12:54:00,
2013-05-09 07:59:00,59.8,58.4,30.03,SW,225,0.0,0.0,95,0.00,,---,0.00,VWS V14.01,2013-05-09 12:59:00,
2013-05-09 08:04:00,60.4,58.9,30.03,SW,225,0.0,0.0,95,0.00,,---,0.00,VWS V14.01,2013-05-09 13:04:00,
2013-05-09 08:09:00,60.9,59.8,30.03,SW,225,0.0,0.0,96,0.00,,---,0.00,VWS V14.01,2013-05-09 13:09:00,
2013-05-09 08:14:00,61.4,60.3,30.06,SW,225,0.0,0.0,96,0.00,,---,0.00,VWS V14.01,2013-05-09 13:14:00,
2013-05-09 08:19:00,62.2,61.0,30.06,NNE,22,0.0,0.0,96,0.00,,---,0.00,VWS V14.01,2013-05-09 13:19:00,
2013-05-09 08:24:00,62.9,62.0,30.06,NE,45,0.0,0.0,97,0.00,,---,0.00,VWS V14.01,2013-05-09 13:24:00,
2013-05-09 08:29:00,63.6,62.7,30.06,SSW,202,0.0,0.0,97,0.00,,---,0.00,VWS V14.01,2013-05-09 13:29:00,
2013-05-09 08:34:00,64.3,63.5,30.06,SW,225,0.0,0.0,97,0.00,,---,0.00,VWS V14.01,2013-05-09 13:34:00,
2013-05-09 08:39:00,64.9,64.0,30.06,SE,135,0.0,0.0,97,0.00,,---,0.00,VWS V14.01,2013-05-09 13:39:00,
2013-05-09 08:44:00,65.4,64.5,30.06,SSW,202,0.0,0.0,97,0.00,,---,0.00,VWS V14.01,2013-05-09 13:44:00,
2013-05-09 08:49:00,66.5,65.6,30.06,WSW,248,0.0,0.0,97,0.00,,---,0.00,VWS V14.01,2013-05-09 13:49:00,
2013-05-09 08:54:00,67.2,66.0,30.06,SSE,158,0.0,0.0,96,0.00,,---,0.00,VWS V14.01,2013-05-09 13:54:00,
2013-05-09 08:59:00,68.1,66.9,30.06,SSW,202,0.0,1.3,96,0.00,,---,0.00,VWS V14.01,2013-05-09 13:59:00,
2013-05-09 09:04:00,69.0,67.2,30.06,SSE,158,0.0,0.0,94,0.00,,---,0.00,VWS V14.01,2013-05-09 14:04:00,
2013-05-09 09:09:00,69.5,67.1,30.06,SSE,158,0.0,0.0,92,0.00,,---,0.00,VWS V14.01,2013-05-09 14:09:00,
2013-05-09 09:14:00,70.3,67.5,30.06,SW,225,0.0,0.0,91,0.00,,---,0.00,VWS V14.01,2013-05-09 14:14:00,
2013-05-09 09:19:00,71.0,67.6,30.06,North,0,0.0,0.0,89,0.00,,---,0.00,VWS V14.01,2013-05-09 14:19:00,
2013-05-09 09:24:00,71.3,67.3,30.06,WNW,292,0.0,0.0,87,0.00,,---,0.00,VWS V14.01,2013-05-09 14:24:00,
2013-05-09 09:29:00,71.2,66.4,30.06,WSW,248,0.0,0.0,85,0.00,,---,0.00,VWS V14.01,2013-05-09 14:29:00,
2013-05-09 09:34:00,71.9,67.1,30.06,WSW,248,0.0,0.0,85,0.00,,---,0.00,VWS V14.01,2013-05-09 14:34:00,
2013-05-09 09:39:00,72.4,67.0,30.06,SSE,158,0.0,0.0,83,0.00,,---,0.00,VWS V14.01,2013-05-09 14:39:00,
2013-05-09 09:44:00,72.8,66.3,30.06,ENE,68,2.2,2.9,80,0.00,,---,0.00,VWS V14.01,2013-05-09 14:44:00,
2013-05-09 09:49:00,73.1,66.2,30.06,SSW,202,0.0,0.0,79,0.00,,---,0.00,VWS V14.01,2013-05-09 14:49:00,
2013-05-09 09:54:00,73.5,66.2,30.06,WSW,248,0.0,0.0,78,0.00,,---,0.00,VWS V14.01,2013-05-09 14:54:00,
2013-05-09 09:59:00,73.7,65.7,30.09,North,0,0.0,0.0,76,0.00,,---,0.00,VWS V14.01,2013-05-09 14:59:00,
2013-05-09 10:04:00,73.7,66.0,30.09,SSE,158,2.5,2.5,77,0.00,,---,0.00,VWS V14.01,2013-05-09 15:04:00,
2013-05-09 10:09:00,73.7,65.7,30.09,SSW,202,0.0,0.0,76,0.00,,---,0.00,VWS V14.01,2013-05-09 15:09:00,
2013-05-09 10:14:00,74.4,66.3,30.06,NNW,338,0.0,0.0,76,0.00,,---,0.00,VWS V14.01,2013-05-09 15:14:00,
2013-05-09 10:19:00,75.1,67.0,30.06,ENE,68,0.0,0.0,76,0.00,,---,0.00,VWS V14.01,2013-05-09 15:19:00,
2013-05-09 10:24:00,75.3,65.7,30.06,NNW,338,2.5,2.5,72,0.00,,---,0.00,VWS V14.01,2013-05-09 15:24:00,
2013-05-09 10:29:00,75.1,65.1,30.06,ENE,68,0.0,2.9,71,0.00,,---,0.00,VWS V14.01,2013-05-09 15:29:00,
2013-05-09 10:34:00,75.1,65.1,30.06,SSE,158,2.9,2.9,71,0.00,,---,0.00,VWS V14.01,2013-05-09 15:34:00,
2013-05-09 10:39:00,75.3,64.8,30.06,SSW,202,0.0,0.0,70,0.00,,---,0.00,VWS V14.01,2013-05-09 15:39:00,
2013-05-09 10:44:00,75.7,64.4,30.09,SW,225,1.3,2.7,68,0.00,,---,0.00,VWS V14.01,2013-05-09 15:44:00,
2013-05-09 10:49:00,75.7,63.5,30.09,East,90,0.0,0.9,66,0.00,,---,0.00,VWS V14.01,2013-05-09 15:49:00,
2013-05-09 10:54:00,75.8,64.5,30.09,SSE,158,2.5,2.5,68,0.00,,---,0.00,VWS V14.01,2013-05-09 15:54:00,
2013-05-09 10:59:00,75.8,63.2,30.09,SE,135,0.0,0.0,65,0.00,,---,0.00,VWS V14.01,2013-05-09 15:59:00,
2013-05-09 11:04:00,75.7,63.1,30.09,SSW,202,0.0,0.0,65,0.00,,---,0.00,VWS V14.01,2013-05-09 16:04:00,
2013-05-09 11:09:00,75.7,63.1,30.09,West,270,0.0,0.0,65,0.00,,---,0.00,VWS V14.01,2013-05-09 16:09:00,
2013-05-09 11:14:00,75.7,63.5,30.09,SSE,158,0.0,1.6,66,0.00,,---,0.00,VWS V14.01,2013-05-09 16:14:00,
2013-05-09 11:19:00,75.7,63.1,30.09,SSE,158,0.0,0.0,65,0.00,,---,0.00,VWS V14.01,2013-05-09 16:19:00,
2013-05-09 11:24:00,75.8,63.7,30.09,SSE,158,0.0,0.0,66,0.00,,---,0.00,VWS V14.01,2013-05-09 16:24:00,
2013-05-09 11:30:00,76.0,63.8,30.09,SSE,158,3.4,3.4,66,0.00,,---,0.00,VWS V14.01,2013-05-09 16:30:00,
2013-05-09 11:35:00,76.2,63.6,30.09,SSW,202,0.0,0.0,65,0.00,,---,0.00,VWS V14.01,2013-05-09 16:35:00,
2013-05-09 11:40:00,76.4,63.8,30.09,SSW,202,0.0,0.0,65,0.00,,---,0.00,VWS V14.01,2013-05-09 16:40:00,
2013-05-09 11:45:00,76.6,64.4,30.09,SSE,158,0.0,0.0,66,0.00,,---,0.00,VWS V14.01,2013-05-09 16:45:00,
2013-05-09 11:50:00,76.7,64.1,30.09,NE,45,0.0,0.0,65,0.00,,---,0.00,VWS V14.01,2013-05-09 16:50:00,
2013-05-09 11:55:00,76.7,64.1,30.09,SSW,202,0.0,0.0,65,0.00,,---,0.00,VWS V14.01,2013-05-09 16:55:00,
2013-05-09 12:00:00,76.6,63.9,30.09,SSE,158,0.0,3.6,65,0.00,,---,0.00,VWS V14.01,2013-05-09 17:00:00,
2013-05-09 12:05:00,76.2,63.1,30.09,SW,225,0.0,0.0,64,0.00,,---,0.00,VWS V14.01,2013-05-09 17:05:00,
2013-05-09 12:10:00,76.2,63.1,30.09,SSE,158,0.0,0.0,64,0.00,,---,0.00,VWS V14.01,2013-05-09 17:10:00,
2013-05-09 12:15:00,76.9,63.8,30.09,SW,225,0.0,1.6,64,0.00,,---,0.00,VWS V14.01,2013-05-09 17:15:00,
2013-05-09 12:20:00,77.3,63.7,30.09,WSW,248,0.0,0.0,63,0.00,,---,0.00,VWS V14.01,2013-05-09 17:20:00,
2013-05-09 12:25:00,77.8,63.3,30.09,SSW,202,2.0,2.5,61,0.00,,---,0.00,VWS V14.01,2013-05-09 17:25:00,
2013-05-09 12:30:00,77.8,62.8,30.09,SSW,202,2.2,2.2,60,0.00,,---,0.00,VWS V14.01,2013-05-09 17:30:00,
2013-05-09 12:35:00,77.8,62.4,30.09,NW,315,0.0,0.0,59,0.00,,---,0.00,VWS V14.01,2013-05-09 17:35:00,
2013-05-09 12:40:00,77.6,61.7,30.09,SSW,202,1.1,1.1,58,0.00,,---,0.00,VWS V14.01,2013-05-09 17:40:00,
2013-05-09 12:45:00,77.8,62.4,30.09,ESE,112,2.7,4.0,59,0.00,,---,0.00,VWS V14.01,2013-05-09 17:45:00,
2013-05-09 12:50:00,77.8,62.4,30.09,SE,135,3.4,3.4,59,0.00,,---,0.00,VWS V14.01,2013-05-09 17:50:00,
2013-05-09 12:55:00,78.2,62.7,30.09,SE,135,0.0,0.0,59,0.00,,---,0.00,VWS V14.01,2013-05-09 17:55:00,
2013-05-09 13:00:00,78.9,62.9,30.06,SSE,158,0.9,0.9,58,0.00,,---,0.00,VWS V14.01,2013-05-09 18:00:00,
2013-05-09 13:05:00,79.1,62.1,30.06,ENE,68,0.0,0.0,56,0.00,,---,0.00,VWS V14.01,2013-05-09 18:05:00,
2013-05-09 13:10:00,79.6,60.5,30.06,SSW,202,0.0,0.0,52,0.00,,---,0.00,VWS V14.01,2013-05-09 18:10:00,
2013-05-09 13:15:00,80.0,61.3,30.06,SSE,158,3.1,3.1,53,0.00,,---,0.00,VWS V14.01,2013-05-09 18:15:00,
2013-05-09 13:20:00,79.6,60.5,30.06,ESE,112,3.1,3.4,52,0.00,,---,0.00,VWS V14.01,2013-05-09 18:20:00,
2013-05-09 13:25:00,79.1,61.0,30.06,WNW,292,2.2,3.1,54,0.00,,---,0.00,VWS V14.01,2013-05-09 18:25:00,
2013-05-09 13:30:00,78.9,60.9,30.06,SSE,158,0.0,0.0,54,0.00,,---,0.00,VWS V14.01,2013-05-09 18:30:00,
2013-05-09 13:35:00,78.9,61.9,30.06,SSW,202,0.0,0.0,56,0.00,,---,0.00,VWS V14.01,2013-05-09 18:35:00,
2013-05-09 13:40:00,79.3,61.2,30.06,SW,225,1.6,1.6,54,0.00,,---,0.00,VWS V14.01,2013-05-09 18:40:00,
2013-05-09 13:45:00,79.4,61.9,30.06,South,180,1.6,1.6,55,0.00,,---,0.00,VWS V14.01,2013-05-09 18:45:00,
2013-05-09 13:50:00,80.0,61.9,30.06,SSE,158,0.0,0.0,54,0.00,,---,0.00,VWS V14.01,2013-05-09 18:50:00,
2013-05-09 13:55:00,80.0,62.4,30.06,SE,135,0.0,0.9,55,0.00,,---,0.00,VWS V14.01,2013-05-09 18:55:00,
2013-05-09 14:00:00,80.2,63.1,30.06,ESE,112,2.2,3.4,56,0.00,,---,0.00,VWS V14.01,2013-05-09 19:00:00,
2013-05-09 14:05:00,80.9,62.7,30.06,SE,135,0.0,0.0,54,0.00,,---,0.00,VWS V14.01,2013-05-09 19:05:00,
2013-05-09 14:10:00,81.6,63.9,30.06,South,180,0.0,0.0,55,0.00,,---,0.00,VWS V14.01,2013-05-09 19:10:00,
2013-05-09 14:15:00,81.4,62.1,30.06,WSW,248,2.2,3.1,52,0.00,,---,0.00,VWS V14.01,2013-05-09 19:15:00,
2013-05-09 14:20:00,81.6,61.2,30.06,ENE,68,2.0,2.0,50,0.00,,---,0.00,VWS V14.01,2013-05-09 19:20:00,
2013-05-09 14:39:00,82.7,62.7,30.03,ESE,112,2.2,2.2,51,0.00,,---,0.00,VWS V14.01,2013-05-09 19:39:00,